• In Österreich
  • Länderverzeichnis
  • Für 7 Tage
  • Wassertemperatur
  • Satellitenkarten
  • Wetterkarte
  • News
  • Widgets
  • user-avatar
    Anmelden

    Stündliche Wetter Trzebinia

    Heute, 20 April, Freitag

    Zeit Temperatur Niederschläge Wind Luftdruck Luftfeuchtigkeit
    00:00 +12°C° 0 mm 2 m/S 739 mmHg 80%
    01:00 +11°C° 0 mm 1 m/S 739 mmHg 79%
    02:00 +10°C° 0 mm 1 m/S 739 mmHg 79%
    03:00 +10°C° 0 mm 1 m/S 739 mmHg 78%
    04:00 +9°C° 0 mm 1 m/S 739 mmHg 78%
    05:00 +10°C° 0 mm 1 m/S 739 mmHg 72%
    06:00 +11°C° 0 mm 1 m/S 739 mmHg 66%
    07:00 +12°C° 0 mm 1 m/S 739 mmHg 60%
    08:00 +14°C° 0 mm 1 m/S 739 mmHg 52%
    09:00 +16°C° 0 mm 1 m/S 739 mmHg 44%
    10:00 +19°C° 0 mm 1 m/S 739 mmHg 37%
    11:00 +20°C° 0 mm 1 m/S 739 mmHg 34%
    12:00 +20°C° 0 mm 2 m/S 739 mmHg 32%
    13:00 +21°C° 0 mm 2 m/S 739 mmHg 30%
    14:00 +22°C° 0 mm 1 m/S 738 mmHg 30%
    15:00 +22°C° 0 mm 1 m/S 738 mmHg 31%
    16:00 +22°C° 0 mm 1 m/S 737 mmHg 31%
    17:00 +20°C° 0 mm 1 m/S 737 mmHg 37%
    18:00 +18°C° 0 mm 1 m/S 737 mmHg 42%
    19:00 +15°C° 0 mm 1 m/S 736 mmHg 47%
    20:00 +15°C° 0 mm 2 m/S 736 mmHg 49%
    21:00 +14°C° 0 mm 2 m/S 736 mmHg 52%
    22:00 +13°C° 0 mm 2 m/S 736 mmHg 54%
    23:00 +13°C° 0 mm 2 m/S 736 mmHg 54%

    Morgen, 21 April, Samstag

    Zeit Temperatur Niederschläge Wind Luftdruck Luftfeuchtigkeit
    00:00 +12°C° 0 mm 2 m/S 735 mmHg 54%
    01:00 +12°C° 0 mm 2 m/S 735 mmHg 54%
    02:00 +12°C° 0 mm 2 m/S 735 mmHg 55%
    03:00 +12°C° 0 mm 2 m/S 734 mmHg 55%
    04:00 +10°C° 0 mm 3 m/S 734 mmHg 55%
    05:00 +12°C° 0 mm 3 m/S 734 mmHg 55%
    06:00 +13°C° 0 mm 4 m/S 734 mmHg 55%
    07:00 +15°C° 0 mm 4 m/S 734 mmHg 55%
    08:00 +18°C° 0 mm 4 m/S 734 mmHg 52%
    09:00 +20°C° 0 mm 4 m/S 734 mmHg 49%
    10:00 +22°C° 0 mm 5 m/S 734 mmHg 46%
    11:00 +22°C° 0 mm 5 m/S 733 mmHg 45%
    12:00 +23°C° 0 mm 5 m/S 733 mmHg 44%
    13:00 +25°C° 0 mm 5 m/S 733 mmHg 43%
    14:00 +25°C° 0,2 mm 5 m/S 732 mmHg 45%
    15:00 +25°C° 0,2 mm 5 m/S 732 mmHg 46%
    16:00 +23°C° 0,2 mm 5 m/S 732 mmHg 48%
    17:00 +21°C° 0 mm 4 m/S 732 mmHg 55%
    18:00 +19°C° 0 mm 3 m/S 732 mmHg 61%
    19:00 +17°C° 0 mm 3 m/S 732 mmHg 68%
    20:00 +17°C° 0 mm 2 m/S 732 mmHg 69%
    21:00 +16°C° 0 mm 2 m/S 732 mmHg 70%
    22:00 +15°C° 0 mm 1 m/S 733 mmHg 71%
    23:00 +14°C° 0 mm 1 m/S 733 mmHg 72%

    übermorgen, 22 April, Sonntag

    Zeit Temperatur Niederschläge Wind Luftdruck Luftfeuchtigkeit
    00:00 +13°C° 0 mm 1 m/S 733 mmHg 73%
    01:00 +12°C° 0 mm 1 m/S 733 mmHg 74%
    02:00 +11°C° 0 mm 1 m/S 733 mmHg 74%
    03:00 +11°C° 0 mm 1 m/S 733 mmHg 73%
    04:00 +10°C° 0 mm 1 m/S 733 mmHg 73%
    05:00 +11°C° 0 mm 1 m/S 733 mmHg 68%
    06:00 +12°C° 0 mm 1 m/S 733 mmHg 64%
    07:00 +13°C° 0 mm 1 m/S 733 mmHg 59%
    08:00 +14°C° 0 mm 1 m/S 733 mmHg 53%
    09:00 +16°C° 0 mm 2 m/S 733 mmHg 47%
    10:00 +17°C° 0 mm 2 m/S 733 mmHg 41%
    11:00 +18°C° 0 mm 2 m/S 732 mmHg 38%
    12:00 +19°C° 0 mm 2 m/S 732 mmHg 35%
    13:00 +20°C° 0 mm 3 m/S 732 mmHg 33%
    14:00 +20°C° 0 mm 2 m/S 731 mmHg 33%
    15:00 +20°C° 0 mm 2 m/S 731 mmHg 33%
    16:00 +20°C° 0 mm 2 m/S 731 mmHg 33%
    17:00 +18°C° 0 mm 2 m/S 730 mmHg 38%
    18:00 +16°C° 0 mm 1 m/S 730 mmHg 44%
    19:00 +14°C° 0 mm 1 m/S 730 mmHg 49%
    20:00 +14°C° 0 mm 1 m/S 730 mmHg 51%
    21:00 +13°C° 0 mm 1 m/S 730 mmHg 53%
    22:00 +11°C° 0 mm 0 m/S 730 mmHg 55%
    23:00 +12°C° 0 mm 1 m/S 730 mmHg 56%

    23 April, Montag

    Zeit Temperatur Niederschläge Wind Luftdruck Luftfeuchtigkeit
    00:00 +12°C° 0 mm 1 m/S 730 mmHg 57%
    01:00 +11°C° 0 mm 1 m/S 730 mmHg 58%
    02:00 +11°C° 0 mm 1 m/S 729 mmHg 59%
    03:00 +11°C° 0 mm 1 m/S 729 mmHg 60%
    04:00 +11°C° 0 mm 1 m/S 729 mmHg 61%
    05:00 +12°C° 0 mm 2 m/S 729 mmHg 60%
    06:00 +14°C° 0 mm 2 m/S 729 mmHg 59%
    07:00 +15°C° 0 mm 2 m/S 728 mmHg 58%
    08:00 +17°C° 0 mm 2 m/S 728 mmHg 56%
    09:00 +20°C° 0 mm 3 m/S 728 mmHg 53%
    10:00 +22°C° 0 mm 3 m/S 728 mmHg 50%
    11:00 +23°C° 0,1 mm 4 m/S 728 mmHg 49%
    12:00 +23°C° 0,1 mm 4 m/S 727 mmHg 47%
    13:00 +25°C° 0,1 mm 5 m/S 727 mmHg 46%
    14:00 +23°C° 0,8 mm 5 m/S 726 mmHg 54%
    15:00 +21°C° 0,8 mm 5 m/S 726 mmHg 62%
    16:00 +20°C° 0,8 mm 5 m/S 725 mmHg 70%
    17:00 +19°C° 1 mm 5 m/S 725 mmHg 74%
    18:00 +18°C° 1 mm 4 m/S 725 mmHg 78%
    19:00 +17°C° 1 mm 4 m/S 726 mmHg 82%
    20:00 +15°C° 0,1 mm 4 m/S 726 mmHg 84%
    21:00 +14°C° 0,1 mm 4 m/S 726 mmHg 87%
    22:00 +13°C° 0,1 mm 5 m/S 727 mmHg 89%
    23:00 +12°C° 0,1 mm 5 m/S 727 mmHg 88%

    24 April, Dienstag

    Zeit Temperatur Niederschläge Wind Luftdruck Luftfeuchtigkeit
    00:00 +12°C° 0,1 mm 4 m/S 728 mmHg 88%
    01:00 +11°C° 0,1 mm 4 m/S 728 mmHg 87%
    02:00 +10°C° 0 mm 4 m/S 729 mmHg 88%
    03:00 +9°C° 0 mm 3 m/S 729 mmHg 89%
    04:00 +9°C° 0 mm 3 m/S 729 mmHg 90%
    05:00 +9°C° 0 mm 3 m/S 729 mmHg 84%
    06:00 +10°C° 0 mm 4 m/S 730 mmHg 79%
    07:00 +11°C° 0 mm 4 m/S 730 mmHg 73%
    08:00 +12°C° 0,1 mm 5 m/S 730 mmHg 69%
    09:00 +13°C° 0,1 mm 5 m/S 730 mmHg 64%
    10:00 +14°C° 0,1 mm 6 m/S 730 mmHg 60%
    11:00 +14°C° 0 mm 6 m/S 730 mmHg 57%
    12:00 +15°C° 0 mm 6 m/S 730 mmHg 55%
    13:00 +16°C° 0 mm 6 m/S 730 mmHg 53%
    14:00 +16°C° 0 mm 6 m/S 730 mmHg 54%
    15:00 +16°C° 0 mm 6 m/S 730 mmHg 55%
    16:00 +16°C° 0 mm 5 m/S 730 mmHg 55%
    17:00 +15°C° 0 mm 4 m/S 730 mmHg 60%
    18:00 +14°C° 0 mm 3 m/S 730 mmHg 65%
    19:00 +14°C° 0 mm 2 m/S 729 mmHg 70%
    20:00 +13°C° 0 mm 2 m/S 730 mmHg 73%
    21:00 +12°C° 0 mm 2 m/S 730 mmHg 75%
    22:00 +11°C° 0 mm 3 m/S 730 mmHg 77%
    23:00 +11°C° 0 mm 3 m/S 730 mmHg 77%

    25 April, Mittwoch

    Zeit Temperatur Niederschläge Wind Luftdruck Luftfeuchtigkeit
    00:00 +11°C° 0 mm 3 m/S 729 mmHg 78%
    01:00 +11°C° 0 mm 3 m/S 729 mmHg 78%
    02:00 +11°C° 0 mm 3 m/S 729 mmHg 77%
    03:00 +11°C° 0 mm 3 m/S 729 mmHg 77%
    04:00 +11°C° 0 mm 3 m/S 728 mmHg 76%
    05:00 +12°C° 0 mm 4 m/S 728 mmHg 72%
    06:00 +13°C° 0 mm 5 m/S 728 mmHg 69%
    07:00 +15°C° 0 mm 5 m/S 728 mmHg 65%
    08:00 +16°C° 0 mm 6 m/S 728 mmHg 59%
    09:00 +19°C° 0 mm 6 m/S 728 mmHg 54%
    10:00 +21°C° 0 mm 7 m/S 728 mmHg 48%
    11:00 +22°C° 0 mm 7 m/S 727 mmHg 46%
    12:00 +23°C° 0 mm 7 m/S 727 mmHg 43%
    13:00 +23°C° 0 mm 8 m/S 727 mmHg 40%
    14:00 +23°C° 0 mm 7 m/S 726 mmHg 43%
    15:00 +23°C° 0 mm 7 m/S 726 mmHg 45%
    16:00 +23°C° 0 mm 6 m/S 725 mmHg 48%
    17:00 +21°C° 0,2 mm 5 m/S 725 mmHg 54%
    18:00 +19°C° 0,2 mm 5 m/S 725 mmHg 61%
    19:00 +17°C° 0,2 mm 4 m/S 725 mmHg 67%
    20:00 +15°C° 0,1 mm 4 m/S 726 mmHg 73%
    21:00 +13°C° 0,1 mm 3 m/S 726 mmHg 79%
    22:00 +12°C° 0,1 mm 3 m/S 726 mmHg 85%
    23:00 +12°C° 0,2 mm 3 m/S 727 mmHg 85%
    Mehr zeigen